Chapleau Airport
CYLD : now visible

Airfield :











YOU CAN JOIN US ON...

 
LOGIN :

Register | Disclaimer

   EN    FR    IT 

 









Legend :    VFR   Marginal VFR   IFR   Intensive IFR   Very Intensive IFR
Visi :
Ceiling :
>= 8 km
>= 3000ft
5 to 8 km
1000 to 3000 ft
1500m to 5 km
500 to 1000 ft
800 to 1500m
200 to 500 ft
< 800m
< 200 ft
Symbols :   Thunderstorms  Fog  Heavy snow  Heavy precipitations  Wind > 20 kt






- Airport Elevation : 1470 ft
- IATA code : YLD


CYLD - Chapleau

CURRENT METAR :
  • 212100Z 29007KT 260V350 15SM BKN040 M00/M11 A2992 RMK SC5 SLP162

EXPIRED METARs :
  • 212000Z 36008KT 270V080 15SM BKN038 M01/M09 A2993 RMK SC7 SLP167
  • 211900Z 31007KT 270V050 15SM BKN041 M01/M09 A2994 RMK SC7 SLP172

TAF TAF CYLD
Valid from the 21 at 20:00 until the 22 at 01:00 UTC


211938Z 2120/2201 31007KT P6SM BKN040 RMK NXT FCST WILL BE ISSUED AT 221145Z
CZYZ FIR / North America



MET'MAP, your aeronautical weather chart ! - Copyright ORBIFLY December 2007 - Disclaimer

ORBIFLY MET'MAP TEAM :

Programming & Development : Alexandra Zaïnal
Concept & original design : Baudouin d'Aumeries
Assistance for programming : Marc-Olivier Méhu
Technical & hardware support : Manuel Goepfert

Contact : metmap@orbifly.com




SOURCES & CREDITS :

   NOAA       Earth
Advisory